Regional Weather Roundup
Issued by NWS Goodland, KS

Home | Current Version | Previous Version | Text Only | Print | Product List | Glossary Off
Versions: 1 2 3 4 5 6 7 8 9 10 11 12 13 14 15 16 17 18 19 20 21 22 23 24 25 26 27 28 29 30 31 32 33 34 35 36 37 38 39 40 41 42 43 44 45 46 47 48 49 50

750
ASUS43 KGLD 222108
RWRGLD

GOODLAND FORECAST AREA HOURLY WEATHER ROUNDUP
NATIONAL WEATHER SERVICE GOODLAND KS
200 PM MST WED FEB 22 2017

...OFFICIAL OBSERVATIONS...

CITY           SKY/WX    TMP DP  RH WIND       PRES   REMARKS
GOODLAND KS    SUNNY     64  20  18 VRB6      29.78F
HILL CITY KS   CLOUDY    70  24  17 N6        29.74F
IMPERIAL NEB   SUNNY     64  19  17 N12G18    29.76F
MCCOOK NEB     SUNNY     68  25  19 NW10      29.75F
AKRON CO       SUNNY     59  18  20 VRB5      29.79F
BURLINGTON CO  SUNNY     63  23  21 MISG      29.80F
LIMON CO       SUNNY     58  20  22 E12G21    29.78F
$$

...UNOFFICIAL OBSERVATIONS...

CITY           SKY/WX    TMP DP  RH WIND       PRES   REMARKS
LENORA KS        N/A     70  32  24 NW8         N/A
NORTON KS      SUNNY     70  12  11 NW8       29.73S
SHARON SPRINGS   N/A     67  26  21 CALM        N/A
TRENTON NEB      N/A     66  32  28 CALM        N/A
KIT CARSON CO    N/A     62  26  25 MISG        N/A
YUMA CO        FAIR      59  19  21 N8        29.78F
$$




USA.gov is the U.S. government's official web portal to all federal, state and local government web resources and services.